Retour au catalogue

TIANMU-1 05

ActifMétéoSSO
NORAD 55975·PAYLOAD·🇨🇳 China

Lancé Mar 22, 2023 depuis Jiuquan Satellite Launch Center

Loading…

Prochains Passages (prochaines 24 heures)

TLE

FraisSource: Space-Track

Époque: Sep 14, 2026, 22:12 UTC

1 55975U 23039C   26257.92531954  .00015648  00000-0  28548-3 0  9992
2 55975  97.5249  75.1809 0003518 131.4186 228.7368 15.49522793194704

Suivez TIANMU-1 05 en temps réel avec AllMySat

Download on the App Store